Weather History for KGEV - January, 2013

Change the Weather History Date:

Wednesday, January 2, 2013

  Actual Average Record
Temperature  
Mean Temperature 36 °F -  
Max Temperature 42 °F 44 °F 62 °F (2005)
Min Temperature 31 °F 24 °F 9 °F (1977)
Degree Days  
Heating Degree Days 28    
Moisture  
Dew Point 30 °F    
Average Humidity 82    
Maximum Humidity 94    
Minimum Humidity 72    
Precipitation  
Precipitation 0.00 in - - ()
Sea Level Pressure  
Sea Level Pressure 30.00 in    
Wind  
Wind Speed 7 mph (WNW)    
Max Wind Speed 16 mph    
Max Gust Speed 25 mph    
Visibility 10 miles    
Events Rain , Snow    
Averages and records for this station are not official NWS values.
T = Trace of Precipitation, MM = Missing Value Source: NWS Daily Summary

Daily Weather History Graph

Daily Weather History Graph

Search for Another Location

Airport or City:

Trip Planner

Search our weather history database for the weather conditions in past years. The results will help you decide how hot, cold, wet, or windy it might be!

Date:

Astronomy

Jan. 02, 2013 Rise Set
Actual Time 7:37 AM EST 5:22 PM EST
Civil Twilight 7:09 AM EST 5:50 PM EST
Nautical Twilight 6:36 AM EST 6:23 PM EST
Astronomical Twilight 6:05 AM EST 6:54 PM EST
Moon 10:43 PM EST (1/2) 10:27 AM EST (1/2)
Length of Visible Light 10h 41m
Length of Day
9h 44m
Waning Gibbous, 75% of the Moon is Illuminated
Jan 2
Waning Gibbous
Jan 4
Last Quarter
Jan 11
New
Jan 18
First Quarter
Jan 26
Full

Hourly Weather History & Observations

Time (EST) Temp. Windchill Dew Point Humidity Pressure Visibility Wind Dir Wind Speed Gust Speed Precip Events Conditions
12:15 AM 42.4 °F 38.8 °F 36.5 °F 79% 29.92 in 10.0 mi WSW 5.8 mph 17.3 mph N/A Rain Light Rain
12:35 AM 42.4 °F 40.7 °F 36.7 °F 80% 29.91 in 10.0 mi WSW 3.5 mph - N/A Rain Light Rain
12:55 AM 42.4 °F 36.5 °F 36.5 °F 79% 29.90 in 10.0 mi West 10.4 mph - N/A   Overcast
1:15 AM 42.4 °F 40.7 °F 36.5 °F 79% 29.90 in 10.0 mi West 3.5 mph - N/A   Overcast
1:35 AM 42.8 °F 38.0 °F 36.5 °F 78% 29.89 in 10.0 mi West 8.1 mph 16.1 mph N/A   Overcast
1:55 AM 42.8 °F 37.0 °F 36.9 °F 80% 29.90 in 10.0 mi WNW 10.4 mph 16.1 mph N/A   Light Drizzle
2:15 AM 42.1 °F 36.1 °F 37.2 °F 83% 29.90 in 10.0 mi WNW 10.4 mph 19.6 mph N/A   Overcast
2:35 AM 41.9 °F 36.9 °F 36.7 °F 82% 29.91 in 10.0 mi NW 8.1 mph 17.3 mph N/A   Overcast
2:55 AM 41.5 °F 37.8 °F 36.9 °F 83% 29.91 in 10.0 mi NW 5.8 mph - N/A   Overcast
3:15 AM 39.7 °F 32.7 °F 36.9 °F 89% 29.93 in 5.0 mi NNW 11.5 mph 16.1 mph N/A   Drizzle
3:35 AM 38.5 °F 32.7 °F 35.2 °F 88% 29.93 in 10.0 mi NNW 8.1 mph 20.7 mph N/A   Overcast
4:15 AM 37.6 °F 32.3 °F 33.1 °F 84% 29.94 in 10.0 mi West 6.9 mph - N/A   Overcast
4:35 AM 37.6 °F 32.3 °F 32.5 °F 82% 29.93 in 10.0 mi WNW 6.9 mph - N/A   Overcast
4:55 AM 37.2 °F 31.9 °F 32.0 °F 81% 29.93 in 10.0 mi West 6.9 mph - N/A   Mostly Cloudy
5:15 AM 37.0 °F 28.1 °F 32.0 °F 82% 29.91 in 10.0 mi West 15.0 mph - N/A   Clear
5:35 AM 37.6 °F 29.1 °F 31.8 °F 80% 29.92 in 10.0 mi WNW 13.8 mph - N/A   Clear
5:55 AM 37.8 °F 29.0 °F 31.5 °F 78% 29.92 in 10.0 mi WNW 15.0 mph 18.4 mph N/A   Clear
6:15 AM 37.0 °F 27.7 °F 31.8 °F 81% 29.93 in 10.0 mi WNW 16.1 mph 25.3 mph N/A   Scattered Clouds
6:35 AM 36.0 °F 26.7 °F 32.0 °F 86% 29.94 in 10.0 mi WNW 15.0 mph 23.0 mph N/A   Mostly Cloudy
6:55 AM 35.8 °F 28.3 °F 32.0 °F 86% 29.95 in 10.0 mi WNW 10.4 mph - N/A   Overcast
7:15 AM 35.4 °F 29.7 °F 31.1 °F 84% 29.97 in 10.0 mi WNW 6.9 mph - N/A   Overcast
7:35 AM 34.5 °F 30.4 °F 30.6 °F 85% 29.98 in 10.0 mi NW 4.6 mph - N/A   Overcast
7:55 AM 33.6 °F 29.4 °F 31.1 °F 90% 29.99 in 10.0 mi NW 4.6 mph - N/A   Overcast
8:15 AM 32.2 °F 26.7 °F 30.6 °F 94% 30.00 in 10.0 mi NNW 5.8 mph - N/A   Overcast
8:35 AM 32.0 °F 25.6 °F 30.2 °F 93% 30.00 in 1.5 mi NNW 6.9 mph - N/A Snow Light Snow
8:55 AM 31.3 °F 22.1 °F 29.5 °F 93% 30.00 in 1.8 mi NNW 11.5 mph 16.1 mph N/A Snow Light Snow
9:15 AM 31.6 °F 23.7 °F 28.2 °F 87% 30.01 in 10.0 mi NNW 9.2 mph - N/A   Overcast
9:35 AM 31.8 °F 24.6 °F 28.2 °F 87% 30.02 in 10.0 mi NNW 8.1 mph - N/A   Overcast
10:15 AM 32.0 °F 25.6 °F 27.3 °F 83% 30.04 in 10.0 mi NNW 6.9 mph - N/A   Overcast
10:35 AM 32.0 °F 24.2 °F 26.8 °F 81% 30.04 in 10.0 mi NNW 9.2 mph - N/A   Overcast
10:55 AM 32.4 °F 26.0 °F 26.6 °F 79% 30.04 in 10.0 mi NNW 6.9 mph - N/A   Overcast
11:15 AM 32.5 °F 26.2 °F 27.0 °F 80% 30.04 in 10.0 mi NNW 6.9 mph - N/A   Overcast
11:35 AM 32.7 °F 26.4 °F 27.0 °F 79% 30.03 in 10.0 mi NNW 6.9 mph - N/A   Overcast
11:55 AM 33.8 °F 29.6 °F 27.3 °F 77% 30.03 in 10.0 mi WNW 4.6 mph - N/A   Overcast
12:15 PM 34.0 °F 31.0 °F 27.5 °F 77% 30.02 in 10.0 mi West 3.5 mph - N/A   Overcast
12:35 PM 34.7 °F 29.6 °F 27.1 °F 74% 30.01 in 10.0 mi WNW 5.8 mph - N/A   Overcast
12:55 PM 35.1 °F 27.9 °F 27.5 °F 74% 30.00 in 10.0 mi WNW 9.2 mph - N/A   Overcast
1:15 PM 35.4 °F 29.7 °F 27.7 °F 73% 30.00 in 10.0 mi West 6.9 mph - N/A   Overcast
1:35 PM 34.9 °F 27.7 °F 27.5 °F 74% 30.00 in 10.0 mi West 9.2 mph - N/A   Overcast
1:55 PM 34.9 °F 30.8 °F 27.3 °F 74% 30.00 in 10.0 mi West 4.6 mph - N/A   Overcast
2:15 PM 34.9 °F 28.3 °F 27.3 °F 74% 30.00 in 10.0 mi NW 8.1 mph - N/A   Overcast
2:35 PM 35.1 °F 27.9 °F 27.3 °F 73% 30.00 in 10.0 mi WNW 9.2 mph - N/A   Overcast
2:55 PM 35.2 °F 28.1 °F 27.3 °F 73% 30.00 in 10.0 mi West 9.2 mph - N/A   Mostly Cloudy
3:15 PM 34.9 °F 29.9 °F 27.5 °F 74% 30.01 in 10.0 mi NW 5.8 mph - N/A   Scattered Clouds
3:35 PM 35.4 °F 29.0 °F 27.5 °F 73% 30.02 in 10.0 mi NW 8.1 mph - N/A   Clear
3:55 PM 35.1 °F 31.0 °F 27.0 °F 72% 30.02 in 10.0 mi NNW 4.6 mph - N/A   Clear
4:15 PM 35.2 °F 28.8 °F 27.7 °F 74% 30.02 in 10.0 mi NW 8.1 mph - N/A   Clear
4:35 PM 34.7 °F 29.6 °F 27.7 °F 76% 30.03 in 10.0 mi NW 5.8 mph - N/A   Clear
4:55 PM 33.6 °F - 28.0 °F 80% 30.03 in 10.0 mi Calm Calm - N/A   Scattered Clouds
5:15 PM 33.1 °F 27.7 °F 27.9 °F 81% 30.02 in 10.0 mi NNW 5.8 mph - N/A   Mostly Cloudy
5:35 PM 32.9 °F 29.8 °F 27.7 °F 81% 30.03 in 10.0 mi NNW 3.5 mph - N/A   Scattered Clouds
6:15 PM 32.4 °F - 27.5 °F 82% 30.04 in 10.0 mi Calm Calm - N/A   Overcast
6:35 PM 32.4 °F - 27.5 °F 82% 30.06 in 10.0 mi Calm Calm - N/A   Overcast
6:55 PM 32.2 °F - 27.7 °F 83% 30.06 in 10.0 mi Calm Calm - N/A   Overcast
7:15 PM 32.4 °F - 27.9 °F 83% 30.06 in 10.0 mi Calm Calm - N/A   Overcast
7:35 PM 32.4 °F - 27.9 °F 83% 30.06 in 10.0 mi Calm Calm - N/A   Overcast
7:55 PM 32.4 °F - 28.0 °F 84% 30.05 in 10.0 mi Calm Calm - N/A   Overcast
8:15 PM 32.0 °F - 28.2 °F 86% 30.06 in 10.0 mi Calm Calm - N/A   Overcast
8:35 PM 32.0 °F - 28.0 °F 85% 30.06 in 10.0 mi Calm Calm - N/A   Overcast
8:55 PM 32.0 °F - 28.0 °F 85% 30.06 in 10.0 mi Calm Calm - N/A   Overcast
9:15 PM 32.0 °F - 27.9 °F 85% 30.06 in 10.0 mi Calm Calm - N/A   Overcast
9:35 PM 32.0 °F - 27.9 °F 85% 30.07 in 10.0 mi Calm Calm - N/A   Overcast
9:55 PM 32.0 °F - 28.0 °F 85% 30.06 in 10.0 mi Calm Calm - N/A   Overcast
10:15 PM 32.0 °F - 28.4 °F 87% 30.08 in 10.0 mi Calm Calm - N/A   Overcast
10:35 PM 32.5 °F - 28.6 °F 85% 30.09 in 10.0 mi Calm Calm - N/A   Overcast
10:55 PM 32.5 °F - 28.8 °F 86% 30.07 in 10.0 mi Calm Calm - N/A   Overcast
11:15 PM 32.9 °F - 29.1 °F 86% 30.08 in 10.0 mi Calm Calm - N/A   Overcast
11:35 PM 32.9 °F - 29.1 °F 86% 30.07 in 10.0 mi Calm Calm - N/A   Overcast
11:55 PM 32.9 °F - 29.3 °F 87% 30.08 in 10.0 mi Calm Calm - N/A   Overcast